[[{"header":{"parameterUnit":"m.s-1","parameterCategory":1,"la1":30.2992,"la2":30.254,"lo1":-89.0895,"lo2":-89.0443,"dy":0.0025,"dx":0.0025,"nx":19,"ny":19,"refTime":"2026-03-18T09:00:00:Z","depth":0,"parameterNumber":2,"parameterNumberName":"U-component_of_WINDS"},"data":[0,0,0,-0.0238,-0.024,-0.0311,-0.0311,-0.0401,-0.0401,0,0,0,0,0,0,0,0,0,0,0,-0.0215,-0.0215,-0.0238,-0.024,-0.031,-0.0311,-0.04,-0.0401,0,0,0,0,0,0,0,0,0,0,0,-0.0214,-0.0215,-0.0215,-0.024,-0.031,-0.0311,-0.04,-0.0348,0,0,0,0,0,0,0,0,0,0,-0.0279,-0.0254,-0.0215,-0.0215,-0.0241,-0.031,-0.0311,-0.0345,-0.0351,-0.0367,0,-0.0379,0,-0.0391,-0.0407,-0.0407,0,0,0,-0.0243,-0.0249,-0.027,-0.0216,-0.0241,-0.031,-0.0279,-0.0349,-0.0355,-0.0375,-0.038,-0.0384,-0.0393,-0.0408,-0.0408,-0.0487,-0.0488,0,0,-0.0239,-0.0226,-0.0266,-0.0275,-0.0261,-0.0277,-0.0282,-0.0353,-0.0358,-0.0381,-0.0386,-0.0394,-0.0408,-0.0409,-0.0487,-0.0487,0,0,0,-0.0226,-0.0224,-0.0243,-0.0271,-0.0283,-0.0279,-0.0284,-0.0355,-0.0363,-0.0387,-0.0395,-0.0409,-0.041,-0.0487,-0.0487,-0.0487,0,0,0,-0.0224,-0.0216,-0.0241,-0.0234,-0.0282,-0.032,-0.0285,-0.0358,-0.0366,-0.0395,-0.0409,-0.0411,-0.0487,-0.0487,-0.0486,-0.049,0,0,0,-0.0211,-0.0214,-0.0223,-0.0234,-0.0263,-0.0319,-0.033,-0.036,-0.0371,-0.0407,-0.0411,-0.0487,-0.0487,-0.0486,-0.0489,-0.0508,0,0,0,-0.0195,-0.0223,-0.0223,-0.0258,-0.0262,-0.0317,-0.033,-0.0372,-0.0402,-0.0409,-0.0487,-0.0487,-0.0486,-0.0489,-0.0507,-0.0523,-0.0528,0,0,-0.0223,-0.0226,-0.0247,-0.0249,-0.03,-0.0307,-0.0359,-0.04,-0.0416,-0.0463,-0.0465,-0.0487,-0.0489,-0.0508,-0.0555,-0.0558,0,0,0,-0.0252,-0.0268,-0.0284,-0.0311,-0.0342,-0.0369,-0.0403,-0.0418,-0.0459,-0.0437,-0.0498,-0.05,-0.0512,-0.052,-0.0523,-0.0535,-0.049,-0.049,-0.049,-0.0277,-0.0293,-0.033,-0.0356,-0.0383,-0.0417,-0.0441,-0.0468,-0.0478,-0.0492,-0.0508,-0.0533,-0.0542,-0.0545,-0.0557,-0.0515,-0.0515,-0.0515,-0.0515,-0.0322,-0.0347,-0.0358,-0.0399,-0.0417,-0.0452,-0.0486,-0.0492,-0.0529,-0.0523,-0.0535,-0.0529,-0.0548,-0.056,-0.0516,-0.0515,-0.0515,-0.0515,-0.0515,-0.0341,-0.0357,-0.0373,-0.0414,-0.0445,-0.047,-0.0504,-0.052,-0.0535,-0.0546,-0.0565,-0.0565,-0.0569,-0.0553,-0.0553,-0.0553,-0.0554,-0.0554,-0.0554,-0.0356,-0.0374,-0.04,-0.0434,-0.0454,-0.0483,-0.0517,-0.0538,-0.0565,-0.0574,-0.0574,-0.0585,-0.0545,-0.0536,-0.0555,-0.0555,-0.0555,-0.0555,-0.0555,-0.04,-0.0392,-0.0432,-0.0452,-0.0493,-0.0524,-0.0542,-0.0583,-0.0602,-0.0619,-0.0627,-0.0594,-0.0599,-0.0596,-0.0589,-0.0621,-0.0621,-0.0621,-0.0621,-0.0418,-0.0421,-0.0465,-0.0496,-0.0528,-0.0548,-0.0596,-0.0622,-0.065,-0.0663,-0.066,-0.0651,-0.0648,-0.0655,-0.0652,-0.0646,-0.0691,-0.0691,-0.0691,-0.0447,-0.0453,-0.049,-0.0514,-0.0547,-0.0576,-0.0622,-0.0659,-0.0688,-0.0694,-0.0675,-0.0672,-0.0658,-0.0652,-0.066,-0.0654,-0.0643,0,0]},{"header":{"parameterUnit":"m.s-1","parameterCategory":1,"la1":30.2992,"la2":30.254,"lo1":-89.0895,"lo2":-89.0443,"dy":0.0025,"dx":0.0025,"nx":19,"ny":19,"refTime":"2026-03-18T09:00:00:Z","depth":0,"parameterNumber":3,"parameterNumberName":"V-component_of_WINDS"},"data":[0,0,0,0.874,0.8739,0.8691,0.8691,0.8641,0.8641,0,0,0,0,0,0,0,0,0,0,0,0.8763,0.8763,0.874,0.8739,0.8691,0.8691,0.8642,0.8641,0,0,0,0,0,0,0,0,0,0,0,0.8763,0.8763,0.8763,0.8739,0.8691,0.8691,0.8642,0.8673,0,0,0,0,0,0,0,0,0,0,0.8717,0.8748,0.8763,0.8763,0.8739,0.8691,0.8691,0.8674,0.8671,0.8669,0,0.867,0,0.8655,0.8639,0.8639,0,0,0,0.8732,0.8751,0.873,0.8763,0.8738,0.8692,0.8711,0.8672,0.8669,0.8664,0.867,0.8667,0.8654,0.8638,0.8638,0.865,0.8651,0,0,0.8734,0.8759,0.8732,0.8728,0.8738,0.8712,0.8709,0.867,0.8677,0.8669,0.8666,0.8654,0.8638,0.8638,0.865,0.865,0,0,0,0.8747,0.8761,0.8741,0.873,0.8721,0.8711,0.8708,0.8678,0.867,0.8665,0.8653,0.8638,0.8638,0.8649,0.865,0.8693,0,0,0,0.8748,0.8768,0.8742,0.8757,0.8722,0.8699,0.8717,0.8673,0.8667,0.8653,0.8638,0.8637,0.8649,0.865,0.869,0.8708,0,0,0,0.8763,0.877,0.8766,0.8758,0.8739,0.87,0.8688,0.8671,0.866,0.8639,0.8637,0.8649,0.8649,0.8689,0.8705,0.8718,0,0,0,0.8785,0.8805,0.8767,0.8784,0.8739,0.8727,0.8688,0.8678,0.8665,0.8638,0.8649,0.865,0.8688,0.8703,0.8716,0.8732,0.8742,0,0,0.8823,0.881,0.8818,0.8783,0.8784,0.8732,0.8738,0.8703,0.8678,0.866,0.866,0.8691,0.8705,0.8717,0.8787,0.8795,0,0,0,0.8838,0.8844,0.8839,0.8828,0.8802,0.8779,0.8741,0.8727,0.8711,0.8674,0.8699,0.8706,0.8712,0.8719,0.8725,0.8728,0.8654,0.8654,0.8654,0.8927,0.8894,0.8904,0.8866,0.8855,0.8814,0.8801,0.8775,0.8746,0.8752,0.8746,0.8793,0.8802,0.8807,0.881,0.8753,0.8753,0.8753,0.8753,0.8978,0.8981,0.894,0.8936,0.89,0.8895,0.8855,0.8834,0.8822,0.8795,0.8799,0.8771,0.8816,0.8817,0.8756,0.8756,0.8755,0.8755,0.8755,0.9032,0.9028,0.9011,0.8991,0.8978,0.8937,0.8928,0.8896,0.8865,0.8869,0.8859,0.8858,0.8852,0.8867,0.8867,0.8867,0.8867,0.8867,0.8867,0.9094,0.9074,0.9071,0.9044,0.9032,0.9011,0.8969,0.8955,0.8931,0.8908,0.8908,0.8877,0.8827,0.8815,0.887,0.8869,0.8869,0.8869,0.8869,0.9158,0.9138,0.9134,0.9122,0.9086,0.9074,0.9033,0.9008,0.8991,0.8987,0.8954,0.8923,0.8907,0.8902,0.8891,0.8963,0.8963,0.8963,0.8963,0.9203,0.9191,0.9179,0.9161,0.914,0.9102,0.9095,0.9061,0.9023,0.901,0.8995,0.8979,0.8975,0.8961,0.8954,0.8944,0.9027,0.9027,0.9027,0.9239,0.9224,0.9226,0.919,0.9159,0.9132,0.9125,0.9103,0.9056,0.9029,0.8999,0.8996,0.8969,0.8963,0.8935,0.8926,0.8906,0,0]}]]